Regional Weather Roundup
Issued by NWS Little Rock, AR

Home | Current Version | Previous Version | Text Only | Print | Product List | Glossary Off
Versions: 1 2 3 4 5 6 7 8 9 10 11 12 13 14 15 16 17 18 19 20 21 22 23 24 25 26 27 28 29 30 31 32 33 34 35 36 37 38 39 40 41 42 43 44 45 46 47 48 49 50

000
ASUS44 KLZK 020505
RWRLZK

WEATHER ROUNDUP FOR ARKANSAS
NATIONAL WEATHER SERVICE LITTLE ROCK AR
1200 AM CDT MON MAY 02 2016

NOTE: "FAIR" INDICATES FEW OR NO CLOUDS BELOW 12,000 FEET WITH NO
SIGNIFICANT WEATHER AND/OR OBSTRUCTIONS TO VISIBILITY.

ARZ001-003-010-029-020600-
NORTHWEST ARKANSAS

CITY           SKY/WX    TMP DP  RH WIND       PRES   REMARKS
FAYETTEVILLE   CLOUDY    54  48  80 N6        30.10R
FORT SMITH     PTCLDY    60  45  57 N6        30.07R
HARRISON       PTCLDY    51  45  79 W3        30.08R
BENTONVILLE    PTCLDY   N/A N/A N/A N6        30.10S
ROGERS         MOCLDY    53  47  79 CALM      30.10S
SILOAM SPGS    CLOUDY    54  43  66 N5        30.11S
HIGHFILL       CLOUDY    55  48  77 NW8       30.10R
$$

ARZ004-005-016-020600-
NORTH CENTRAL ARKANSAS

CITY           SKY/WX    TMP DP  RH WIND       PRES   REMARKS
BATESVILLE     PTCLDY    61  50  67 NW5       30.02S
FLIPPIN        CLEAR    N/A N/A N/A NW5       30.02S
MTN HOME       CLEAR     54  46  74 NW3       30.03S
$$

ARZ040-041-020600-
WEST CENTRAL ARKANSAS

CITY           SKY/WX    TMP DP  RH WIND       PRES   REMARKS
MENA           PTCLDY    61  50  67 N6        30.06R
MOUNT IDA      CLEAR     56  52  86 CALM      30.02R
$$

ARZ009-017-025-026-028-020600-
NORTHEAST ARKANSAS

CITY           SKY/WX    TMP DP  RH WIND       PRES   REMARKS
CORNING          N/A     63  52  67 N6        30.01R
JONESBORO      PTCLDY    66  52  60 VRB6      29.99R
NEWPORT        CLEAR     64  54  70 N10       30.01R
WALNUT RIDGE   PTCLDY    61  52  72 NW9       30.00R
BLYTHEVILLE    CLOUDY    68  61  78 NW5       29.98S
$$

ARZ022-023-033-042-044-020600-
CENTRAL ARKANSAS

CITY           SKY/WX    TMP DP  RH WIND       PRES   REMARKS
LITTLE ROCK    MOCLDY    68  55  63 NW10      29.99R
N LITTLE ROCK    N/A     65  56  73 NW6       29.98R
JACKSONVILLE   CLEAR     61  57  87 NW7       29.98R
SEARCY         CLEAR     66  54  65 N8        30.01R
HOT SPRINGS    MOCLDY    63  54  72 NW7       29.99F
RUSSELLVILLE   CLEAR     61  54  77 NW6       30.03R
$$

ARZ036-020600-
EAST ARKANSAS

CITY           SKY/WX    TMP DP  RH WIND       PRES   REMARKS
WEST MEMPHIS   PTCLDY    69  68  96 NE3       29.95R
$$

ARZ050-053-066-070-073-020600-
SOUTHWEST ARKANSAS

CITY           SKY/WX    TMP DP  RH WIND       PRES   REMARKS
ARKADELPHIA    MOCLDY    68  63  84 N6        29.98S
CAMDEN         PTCLDY    68  64  88 N5        29.95F
TEXARKANA      CLOUDY    67  56  67 N7        29.97F
EL DORADO      CLEAR     68  66  93 CALM      29.94F
DE QUEEN       PTCLDY    61  50  67 N3        29.99F
$$

ARZ056-057-069-020600-
SOUTHEAST ARKANSAS

CITY           SKY/WX    TMP DP  RH WIND       PRES   REMARKS
PINE BLUFF     PTCLDY    68  59  73 N5        29.96F
STUTTGART      CLEAR     68  61  77 N7        29.97S
MONTICELLO     CLEAR     69  67  93 CALM      29.95S FOG

$$





USA.gov is the U.S. government's official web portal to all federal, state and local government web resources and services.